Regional Weather Roundup
Issued by NWS

Home | Current Version | Previous Version | Text Only | Print | Product List | Glossary Off
Versions: 1 2 3 4 5 6 7 8 9 10 11 12 13 14 15 16 17 18 19 20 21 22 23 24 25 26 27 28 29 30 31 32 33 34 35 36 37 38 39 40 41 42 43 44 45 46 47 48 49 50

000
ASUS45 KBOU 260207
RWRCO

WEATHER ROUNDUP FOR COLORADO
NATIONAL WEATHER SERVICE DENVER/BOULDER CO
800 PM MDT WED MAR 25 2015

NOTE: "FAIR" INDICATES FEW OR NO CLOUDS BELOW 12000 FEET WITH NO
SIGNIFICANT WEATHER AND/OR OBSTRUCTIONS TO VISIBILITY.

COZ001>005-013-030-031-260300-
...NORTHWEST COLORADO...

CITY           SKY/WX    TMP DP  RH WIND       PRES   REMARKS
CRAIG          MOCLDY    34  21  59 S8        30.26S WCI  27
HAYDEN         FAIR      36  19  51 SW5       30.26S
MEEKER         FAIR      40  22  48 CALM      30.27R
MOUNT WERNER   NOT AVBL
STEAMBOAT SPGS MOCLDY    30  28  90 E9        30.27S WCI  22
WALDEN         FAIR      28  21  74 CALM      30.25S
$$

COZ006>008-011-260300-
...WEST CENTRAL VALLEYS...

CITY           SKY/WX    TMP DP  RH WIND       PRES   REMARKS
GRAND JUNCTION FAIR      46  13  26 NE9       30.24R
MONTROSE       FAIR      45  14  28 NW9       30.26R
EAGLE          PTCLDY    39  12  33 CALM      30.29R
RIFLE          FAIR      42  19  39 W3        30.27R
DELTA          FAIR      49  13  23 N9        30.25R
NUCLA          FAIR      45  10  24 NE10      30.28R
$$

COZ017>023-064>068-260300-
...SOUTHWEST COLORADO...

CITY           SKY/WX    TMP DP  RH WIND       PRES   REMARKS
DURANGO        FAIR      47   8  20 N7        30.12R
CORTEZ         FAIR      46   6  19 N9        30.20R
PAGOSA SPRINGS FAIR      40   7  25 N5        30.19R
TELLURIDE      FAIR      32  11  42 CALM      30.28R
WOLF CREEK PAS FAIR      18   5  57 NE22G31   30.27R WCI   0
$$

COZ009-010-012-014-032>034-037-058>063-260300-
...CENTRAL COLORADO...

CITY           SKY/WX    TMP DP  RH WIND       PRES   REMARKS
ASPEN          MOCLDY    34  21  59 N3        30.25R
BUENA VISTA    FAIR      34   8  33 NW17      30.24R WCI  23
COPPER MTN     FAIR      18   9  68 W18G31    30.26R WCI   2
BERTHOUD PASS  MOCLDY     9   1  72 MISG      30.21S HAZE
COTTONWOOD PAS FAIR      32   7  34 W12G18    30.25R WCI  23
GUNNISON       FAIR      36  12  38 NW8       30.27R
KREMMLING      FAIR      34  18  51 W5        30.29R WCI  30
LEADVILLE      FAIR      20   7  57 N10       30.25R WCI   9
SALIDA         FAIR      34  27  76 E12G20    30.32R WCI  25
SUNLIGHT       FAIR      23  12  63 NW3       30.33S
WILKERSON PASS MOCLDY    18  10  73 NW13G23   30.26S WCI   4
$$

COZ069>075-260300-
...SAN LUIS VALLEY/SANGRE DE CRISTO MOUNTAINS...

CITY           SKY/WX    TMP DP  RH WIND       PRES   REMARKS
ALAMOSA        FAIR      38   4  24 N9        30.20R
LA VETA PASS   FAIR      19  16  86 MISG      30.25S
SAGUACHE       FAIR      36   5  27 NW12G22   30.22R
$$

COZ035-036-038>040-260300-
...NORTHERN COLORADO FRONT RANGE...

CITY           SKY/WX    TMP DP  RH WIND       PRES   REMARKS
DENVER INTL AP MOCLDY    39  30  70 N8        30.25R
DMNS CITY PARK   N/A     40  28  61 S1        30.25R
AURORA         MOCLDY    38  30  73 SW5       30.25R
FRONT RANGE AP NOT AVBL
ERIE MUNI ARPT MOCLDY    41  30  63 NE8       30.25R
BOULDER MUN AP FAIR      39  30  70 NE5       30.24R
CENTENNIAL     FAIR      35  27  72 SW6       30.24R WCI  30
BROOMFIELD     MOCLDY    41  27  56 CALM      30.25R
FORT COLLINS   FAIR      34  28  80 CALM      30.26F
LONGMONT       CLOUDY    42  33  71 NE8G17    30.27R
$$

COZ041-046-047-076>085-087-088-260300-
...PIKES PEAK/PALMER DIVIDE AND SOUTHERN FOOTHILLS...

CITY           SKY/WX    TMP DP  RH WIND       PRES   REMARKS
COLO. SPRINGS  FAIR      35  24  64 E3        30.26R
A. F. ACADEMY  FAIR      30  24  78 NW2       30.24S
ELLICOTT       FAIR     N/A N/A N/A CALM      30.25R
FALCON         FAIR      29  23  80 NW6       30.26R WCI  22
FORT CARSON    FAIR      35  29  80 W6        30.25R WCI  29
LIMON          FAIR      33  28  81 W7        30.24R WCI  27
MONUMENT HILL  FAIR      28  25  86 SW6       30.24R WCI  22
TRINIDAD       MOCLDY    33  30  88 NW6       30.29R WCI  28
$$

COZ042>045-048>051-090-091-260300-
...NORTHEAST COLORADO...

CITY           SKY/WX    TMP DP  RH WIND       PRES   REMARKS
GREELEY ARPT   MOCLDY    37  28  70 E5        30.24F
AKRON          CLOUDY    39  29  67 E5        30.22R
BURLINGTON     FAIR      33  28  81 NW7       30.24R WCI  27
WRAY           FAIR      38  26  61 NW3       30.23R
STERLING       CLOUDY    41  28  60 N5        30.21R
HOLYOKE        FAIR      37  27  65 CALM      30.21S
FORT MORGAN    DRIZZLE   40  31  69 W8        30.25R
$$

COZ086-089-092>099-260300-
...SOUTHEAST COLORADO...

CITY           SKY/WX    TMP DP  RH WIND       PRES   REMARKS
PUEBLO         FAIR      37  32  82 SW5       30.27R
LA JUNTA       FAIR      40  32  73 CALM      30.27R
LAMAR          FAIR      38  34  85 CALM      30.25R
SPRINGFIELD      N/A     35  35 100 N12       30.24R WCI  27
$$



USA.gov is the U.S. government's official web portal to all federal, state and local government web resources and services.